Medora, ND

6:20 AM MST on February 06, 2016 (GMT -0700)
Old Hwy 10 | | Change Station
CLOSE
Current Station
Personal Weather Station
Location: Medora, ND
Elevation: 2523 ft
Nearby Weather Stations
Active Advisory: High Wind Warning Active Notice: Public Information Statement

Elev 2523 ft 46.92 °N, 103.65 °W | Updated 2 seconds ago

Partly Cloudy
Partly Cloudy
41.2 °F
Feels Like 32 °F
N
19.9
Wind Variable Wind from West
Gusts 26.0 mph

Today
High -- | Low -- °F
--% Chance of Precip.
Yesterday
High -- | Low -- °F
Precip. -- in
Pressure 29.89 in
Visibility 10.0 miles
Clouds Few 9500 ft
Windchill 32 °F
Dew Point 24 °F
Humidity 50%
Rainfall 0.00 in
Snow Depth Not available.
7:11 AM 5:04 PM
Waning Crescent, 5% visible
METAR K20U 061255Z AUTO 24014G19KT 10SM FEW095 02/M07 A2989 RMK AO2
Pressure 29.89 in
Visibility 10.0 miles
Clouds Few 9500 ft
Windchill 32 °F
Dew Point 24 °F
Humidity 50%
Rainfall 0.00 in
Snow Depth Not available.
7:11 AM 5:04 PM
Waning Crescent, 5% visible
METAR K20U 061255Z AUTO 24014G19KT 10SM FEW095 02/M07 A2989 RMK AO2

10-Day Weather Forecast

Almanac

Astronomy

Feb. 06, 2016 Rise Set
Actual Time
Civil Twilight
Nautical Twilight
Astronomical Twilight
Moon
Length of Visible Light
Length of Day
Tomorrow will be .
, % of the Moon is Illuminated

Today's Extremes

State Highs State Lows

Community

WunderPhotos

Upload Photos

1,890,960 photos uploaded!

WunderBlog® & News

Nearby

Air Quality

  Air Quality AQ Index Pollutant
Not available.

Snow Depth

Station Depth Elevation

Earthquake Activity

City Distance Mag. Time & Date
Minimum magnitude displayed is 2.5.

Coastal Water Temperatures

Place Temperature

Stations

Nearby Weather Stations

Station Location Temp. Windchill Dew Point Humidity Wind Precip. Elev Updated Type
                   

Watches & Warnings

High Wind Warning
Issued: 2:54 AM MST Feb. 6, 2016 – National Weather Service

... High Wind Warning remains in effect from noon CST /11 am MST/
today to 9 PM CST /8 PM MST/ Sunday...

* timing... Saturday afternoon through early Sunday evening.

* Winds... northwest winds gusting up to 65 mph.

* Impacts... travel may become hazardous over western North
Dakota.

Precautionary/preparedness actions...

A High Wind Warning means a hazardous high wind event is expected
or occurring. Sustained wind speeds of at least 40 mph or gusts
of 58 mph or more can lead to property damage.